TimeCST,TemperatureF,Dew PointF,Humidity,Sea Level PressureIn,VisibilityMPH,Wind Direction,Wind SpeedMPH,Gust SpeedMPH,PrecipitationIn,Events,Conditions,WindDirDegrees,DateUTC
12:00 AM,68,65,89,29.86,12,NE,6.9,,,,Overcast,50,2012-10-05 06:00:00
12:00 AM,68.0,62.6,83,30.02,-9999.0,NE,6.9,-,N/A,,Clear,50,2012-10-05 06:00:00
1:00 AM,68.0,60.8,78,29.98,-9999.0,East,6.9,-,N/A,,Clear,80,2012-10-05 07:00:00
2:00 AM,66.2,60.8,83,29.99,-9999.0,East,2.3,-,N/A,,Clear,90,2012-10-05 08:00:00
3:00 AM,67,61,74,29.84,12,East,6.9,,,,Partly Cloudy,90,2012-10-05 09:00:00
3:00 AM,66.2,60.8,83,29.98,-9999.0,East,6.9,-,N/A,,Clear,90,2012-10-05 09:00:00
4:00 AM,69.8,60.8,73,29.97,-9999.0,East,6.9,-,N/A,,Clear,100,2012-10-05 10:00:00
5:00 AM,68.0,60.8,78,29.98,6.2,NE,11.5,-,N/A,,Scattered Clouds,50,2012-10-05 11:00:00
6:00 AM,69,60,65,29.85,12,ENE,4.6,,,,Scattered Clouds,60,2012-10-05 12:00:00
6:00 AM,69.8,59.0,68,29.99,-9999.0,ENE,4.6,-,N/A,,Clear,60,2012-10-05 12:00:00
8:00 AM,75.2,60.8,61,30.03,-9999.0,ENE,5.8,-,N/A,,Clear,60,2012-10-05 14:00:00
9:00 AM,80,62,44,29.84,12,SE,8.1,,,,Partly Cloudy,130,2012-10-05 15:00:00
9:00 AM,80.6,62.6,54,30.03,-9999.0,SE,8.1,-,N/A,,Clear,130,2012-10-05 15:00:00
11:00 AM,84.2,62.6,48,30.00,6.2,ESE,8.1,-,N/A,,Mostly Cloudy,110,2012-10-05 17:00:00
12:00 PM,79,66,57,29.84,12,WSW,8.1,,,,Partly Cloudy,240,2012-10-05 18:00:00
12:00 PM,78.8,66.2,65,30.00,6.2,WSW,8.1,-,N/A,,Scattered Clouds,240,2012-10-05 18:00:00
1:00 PM,77.0,68.0,74,29.97,6.2,SW,10.4,-,N/A,,Mostly Cloudy,220,2012-10-05 19:00:00
1:30 PM,77.0,66.2,69,-9999,6.2,SW,9.2,-,N/A,Rain-Thunderstorm,Rain Showers,230,2012-10-05 19:30:00
2:00 PM,77.0,68.0,74,29.96,6.2,SW,9.2,-,N/A,Rain,Light Rain Showers,230,2012-10-05 20:00:00
2:46 PM,71.6,66.2,83,29.97,1.9,NW,9.2,-,N/A,Rain,Rain,310,2012-10-05 20:46:00
3:00 PM,71,61,62,29.83,12,East,4.6,,,,Clear,90,2012-10-05 21:00:00
3:00 PM,69.8,64.4,83,29.97,6.2,SE,6.9,-,N/A,,Overcast,130,2012-10-05 21:00:00
4:00 PM,69.8,64.4,83,29.95,6.2,ESE,5.8,-,N/A,Rain,Light Rain,120,2012-10-05 22:00:00
5:00 PM,71.6,60.8,69,29.95,-9999.0,East,4.6,-,N/A,,Clear,90,2012-10-05 23:00:00
6:00 PM,71,61,62,29.83,12,East,4.6,,,,Clear,90,2012-10-06 00:00:00
6:00 PM,71.6,60.8,69,29.76,-9999.0,East,4.6,-,N/A,,Clear,90,2012-10-06 00:00:00
7:00 PM,69.8,64.4,83,29.98,-9999.0,West,5.8,-,N/A,,Clear,270,2012-10-06 01:00:00
8:00 PM,69.8,62.6,78,30.00,-9999.0,WNW,2.3,-,N/A,,Clear,300,2012-10-06 02:00:00
9:00 PM,69,64,80,29.89,12,NW,3.5,,,,Partly Cloudy,310,2012-10-06 03:00:00
9:00 PM,69.8,64.4,83,30.03,-9999.0,NW,3.5,-,N/A,,Clear,310,2012-10-06 03:00:00
10:00 PM,68.0,64.4,88,30.02,-9999.0,NE,3.5,-,N/A,,Clear,40,2012-10-06 04:00:00
11:00 PM,66.2,62.6,88,30.00,-9999.0,NE,5.8,-,N/A,,Clear,40,2012-10-06 05:00:00